RH
98 99 99 100 100 96 88 81 78 79 78 74 69 66 63 63 64 64 62 65 67 62 52 42 33 21 13 11 10 8 9 14 20 25 27 26 25 26 26 27 27 23 13 8 11 11 7 6 9 10 8 7 7 7 8 9 12 16 21 25 27 26 25
98 100 100 99 100 100 95 87 78 76 75 72 68 65 64 62 60 59 58 58 61 63 60 49 33 19 12 11 10 8 8 14 22 29 29 28 30 31 30 33 36 35 28 20 19 19 14 12 14 14 12 10 8 7 8 9 10 11 14 18 22 26 26
99 100 100 100 100 100 100 96 87 79 73 71 69 65 62 60 54 48 45 44 44 45 44 36 22 14 12 11 10 8 10 18 28 32 32 31 34 36 35 37 40 43 42 38 34 30 25 22 23 19 15 16 17 15 11 9 11 12 13 13 15 19 23
100 100 100 101 100 99 100 100 97 89 79 72 69 66 62 58 51 44 37 33 30 27 23 18 13 12 13 12 12 14 21 29 33 33 32 31 35 39 38 38 42 46 47 46 43 39 34 31 31 28 22 22 25 25 19 12 11 14 16 15 14 14 16
100 101 100 100 101 100 99 100 100 99 91 79 69 66 64 61 55 48 40 32 27 24 21 18 15 15 17 20 23 27 32 33 31 30 30 32 36 42 43 44 47 51 52 51 47 43 40 38 37 35 30 29 30 31 27 19 13 14 17 17 16 15 14
101 102 101 100 101 101 100 100 100 100 99 91 79 68 63 62 61 57 50 42 33 28 25 25 25 25 26 29 31 32 31 29 28 27 30 35 41 46 50 53 56 58 58 58 54 48 46 45 43 40 38 39 40 39 38 37 33 26 20 16 14 15 15
100 102 102 101 100 101 101 101 100 100 100 99 94 84 72 64 61 60 58 54 47 40 33 29 28 28 29 30 29 28 27 25 25 28 33 41 47 53 58 61 65 68 66 63 59 53 50 49 47 45 42 42 45 46 48 52 52 43 31 23 17 14 17
95 97 101 102 100 101 101 101 101 100 99 99 100 98 91 79 69 63 60 59 57 53 48 42 36 31 28 27 25 24 24 25 30 36 41 46 51 58 64 65 66 69 67 62 59 56 54 55 54 52 50 50 53 50 44 46 52 53 50 47 39 26 21
91 91 96 100 100 101 100 100 101 101 100 100 99 100 100 95 86 77 69 65 61 59 57 54 50 46 41 37 34 33 33 34 40 45 47 49 54 62 70 71 68 67 67 66 64 63 64 66 67 67 65 64 60 49 44 51 62 64 62 62 59 46 34
91 92 95 98 99 101 100 99 99 100 101 101 100 100 100 100 98 94 87 79 71 67 64 61 57 54 51 48 45 43 43 43 44 46 48 51 56 65 77 82 77 74 74 75 72 69 73 77 77 77 74 69 64 62 65 71 74 72 71 75 76 63 50
90 94 97 97 97 100 101 100 98 98 99 101 101 101 101 100 100 100 99 94 88 82 76 71 65 60 56 52 48 45 45 45 46 47 50 54 59 68 80 86 84 80 82 85 84 81 84 87 84 81 80 78 79 82 81 78 78 83 87 92 91 75 58
91 93 94 93 94 98 101 101 100 99 99 101 100 100 101 101 100 100 100 100 99 95 89 83 77 70 63 57 53 50 49 48 49 52 55 58 63 71 81 85 84 84 89 95 96 94 94 95 91 88 91 95 96 93 86 82 86 94 97 97 97 86 70
93 93 92 91 94 98 101 102 101 100 101 101 101 101 101 101 100 101 101 101 100 100 99 96 93 86 78 69 60 54 51 51 53 56 61 65 68 72 79 82 83 88 95 100 102 100 99 98 95 95 99 102 100 95 92 92 92 93 94 94 94 88 81
94 94 94 94 94 96 101 103 101 100 101 100 101 102 102 99 96 98 103 104 102 101 101 100 100 97 93 88 79 68 60 56 56 59 63 67 70 71 73 77 85 95 100 101 100 99 99 98 98 100 101 99 96 91 92 97 95 89 87 88 91 89 86
91 92 94 96 93 92 98 102 101 101 101 100 100 100 101 101 97 94 97 102 103 103 99 95 96 97 96 96 93 88 81 73 68 67 67 67 67 69 70 76 88 100 104 101 96 93 96 99 99 101 101 99 98 96 95 99 97 91 89 90 93 92 88
90 91 92 93 93 91 93 97 100 102 102 101 100 100 100 103 101 96 93 94 98 101 96 90 92 97 98 98 98 97 95 92 88 85 83 79 75 73 74 81 93 101 104 102 98 95 98 101 100 101 100 99 100 101 101 102 100 96 96 96 95 93 90
93 94 89 89 92 91 90 93 98 102 102 101 102 102 101 102 101 99 95 91 92 94 92 90 94 100 100 99 100 101 100 99 98 97 95 93 89 86 86 91 99 103 104 103 101 100 101 100 98 97 97 97 99 101 102 101 98 97 100 100 96 95 96
92 94 88 87 93 94 94 97 100 101 101 101 102 102 102 101 100 99 98 96 95 93 90 90 98 103 101 97 98 101 103 101 99 98 97 96 96 96 96 99 103 103 103 103 102 102 100 97 95 95 96 98 100 101 101 98 95 96 100 101 98 97 99
90 91 87 88 94 98 99 100 102 101 99 100 101 100 101 101 99 99 100 99 99 97 91 92 99 103 101 100 99 100 102 100 96 95 96 96 97 96 96 100 103 103 103 103 101 101 99 96 96 98 100 100 100 101 101 99 97 99 100 101 99 97 96
89 90 89 92 96 100 101 100 100 100 100 100 100 100 100 101 100 100 101 101 102 100 94 93 99 102 100 101 101 101 101 99 93 92 95 98 96 91 91 98 103 103 103 103 101 100 100 99 100 100 100 100 100 100 102 100 99 101 100 97 95 91 87
90 91 94 98 100 101 101 100 100 100 100 100 100 100 100 100 100 101 102 102 102 101 97 96 99 101 101 100 100 101 101 98 93 91 94 98 94 89 93 101 104 102 103 103 101 101 100 99 99 99 99 100 99 97 98 99 98 99 98 95 94 92 86
93 90 93 100 103 103 102 101 100 99 98 99 100 100 100 100 100 100 100 101 100 100 100 98 95 96 100 101 102 103 101 99 97 93 93 97 96 94 98 103 102 101 102 101 100 100 99 96 95 96 99 100 97 93 91 92 92 94 95 96 99 101 94
95 90 90 96 101 104 103 101 101 100 99 99 100 100 100 100 100 100 100 100 100 100 100 97 93 95 100 102 102 102 101 100 100 96 93 96 97 95 99 102 101 99 98 95 94 95 96 95 93 95 97 96 93 92 91 91 92 95 98 99 101 102 98
97 95 91 91 94 99 102 101 100 100 100 100 101 100 100 100 100 100 100 100 100 100 99 97 94 96 101 102 101 102 100 99 100 97 95 95 93 92 95 98 97 95 92 89 89 89 91 93 95 96 96 96 96 96 96 95 96 98 100 100 100 100 97
98 101 96 90 88 90 95 98 100 100 100 100 101 101 100 100 100 100 100 100 100 100 98 96 92 90 94 98 100 102 102 100 100 99 96 94 94 95 96 95 93 92 91 88 87 87 88 90 91 92 95 100 102 99 97 98 100 100 99 97 96 97 94
92 96 95 94 91 88 88 91 95 98 98 98 100 102 101 100 100 100 100 100 100 100 100 99 96 92 91 93 95 99 101 102 101 101 99 97 97 98 99 99 98 98 97 93 89 88 87 86 88 93 97 101 101 97 96 99 101 101 100 97 95 97 96
86 85 86 90 93 92 88 87 90 94 96 96 96 98 101 102 101 100 100 100 100 100 100 100 101 99 95 93 93 94 96 99 100 101 101 101 100 98 97 97 97 99 99 97 95 93 93 91 92 94 96 96 97 98 99 100 101 101 101 100 99 99 100
83 80 81 86 89 89 87 86 88 93 96 95 92 91 94 98 100 100 100 101 100 100 100 99 101 102 101 99 98 96 95 97 99 99 99 100 101 100 99 96 94 93 93 94 94 94 97 99 97 94 94 96 98 100 101 101 102 102 101 100 100 100 100
82 83 86 89 90 88 85 83 84 88 93 95 94 89 87 91 96 98 100 101 100 100 100 100 100 101 101 101 101 100 99 100 101 100 100 100 100 101 102 101 99 96 94 94 93 91 94 98 98 95 96 99 100 100 101 100 100 102 101 101 101 100 100
86 89 93 95 94 91 88 85 82 82 86 92 95 92 88 90 96 99 100 102 101 100 100 100 100 100 101 100 100 100 100 100 100 100 101 101 101 101 102 102 102 101 100 99 98 95 94 97 97 93 93 96 97 97 99 100 100 101 101 101 101 100 100
91 96 99 99 96 93 91 89 86 83 84 89 94 95 92 93 97 100 101 102 102 100 100 100 100 101 102 102 101 101 101 100 100 100 100 100 100 100 101 101 101 102 102 102 101 100 99 100 100 96 94 96 97 97 99 101 100 101 102 101 100 100 100
97 99 99 97 96 95 93 90 87 86 86 88 94 99 99 97 96 98 100 103 103 101 100 100 100 100 102 103 102 101 101 101 101 101 101 101 101 100 100 100 100 100 101 101 101 101 100 100 101 100 98 99 100 100 101 101 100 101 103 101 99 99 100
99 98 96 95 97 98 95 91 89 88 89 91 94 98 101 100 97 96 99 103 104 102 100 100 100 100 102 103 102 101 101 100 98 98 99 100 101 101 101 101 100 100 100 100 100 101 100 100 100 100 100 100 100 100 101 101 100 102 104 101 95 95 99
101 100 99 99 97 96 96 95 94 94 95 97 98 98 100 102 100 98 99 102 103 102 102 101 100 100 102 102 100 99 99 98 95 94 93 94 97 100 101 102 102 102 101 101 100 100 100 100 100 100 100 100 100 100 100 101 100 101 102 99 94 95 100
102 102 102 100 97 95 95 96 96 96 98 101 102 100 100 103 103 100 100 102 104 103 102 101 100 100 101 102 100 99 100 99 96 94 92 92 94 96 99 102 104 104 103 102 101 101 100 100 100 100 100 100 100 100 100 101 100 100 101 99 95 97 102
99 99 99 98 95 93 92 93 94 96 98 101 102 101 100 102 103 101 101 102 103 102 101 100 100 100 100 102 102 101 102 102 100 97 95 94 94 94 95 97 100 103 104 103 100 100 101 101 100 100 100 100 100 100 100 100 99 100 101 99 96 99 102
Wind_Speed
28 29 29 28 25 23 20 19 19 20 22 23 25 27 30 31 33 34 34 35 37 39 41 43 44 45 46 45 46 46 44 42 42 43 44 44 44 45 45 45 46 48 51 52 50 51 54 54 54 56 60 64 68 71 72 74 76 77 79 81 82 83 82
26 27 28 28 27 25 22 19 17 17 18 19 21 23 25 27 28 30 30 32 34 37 39 41 41 42 42 42 42 41 41 41 41 41 42 42 43 44 43 43 45 46 47 48 47 47 48 49 49 51 54 58 63 66 67 69 70 72 75 78 81 83 84
25 25 26 27 27 26 24 21 18 15 15 15 17 19 21 23 25 27 28 29 31 33 35 37 38 38 38 39 39 39 38 38 38 39 40 40 41 43 42 42 43 44 45 45 45 44 45 46 47 48 50 52 56 59 62 63 64 66 69 73 77 81 83
25 25 24 24 25 26 25 23 20 17 14 13 14 15 17 20 23 24 25 26 27 28 29 31 33 33 33 34 34 34 34 35 35 37 38 38 39 40 41 40 42 43 44 44 44 43 43 43 44 45 46 47 50 54 58 60 60 60 62 66 71 75 79
25 25 24 23 23 24 23 22 21 18 16 13 12 13 15 17 20 22 23 24 24 24 25 26 27 28 29 30 31 32 33 34 35 37 37 37 37 38 38 39 40 41 41 42 43 42 41 41 42 42 42 43 46 50 54 56 56 56 58 60 64 69 73
25 25 24 22 21 21 21 20 19 19 17 15 12 12 13 15 17 20 22 23 24 25 25 25 26 27 28 30 32 33 34 35 36 37 37 36 35 34 35 36 36 37 38 40 41 41 40 41 40 40 41 40 41 44 47 49 49 51 54 58 61 64 67
26 26 25 23 21 19 19 18 18 17 16 16 14 12 12 13 15 17 19 22 23 25 26 27 28 29 30 32 34 34 35 36 36 35 34 34 34 33 33 33 33 34 36 38 39 39 39 39 40 40 40 39 39 41 43 43 43 44 48 52 57 60 62
26 26 26 25 22 20 18 16 16 16 15 15 15 14 12 12 13 15 17 19 21 23 26 28 29 31 32 34 35 35 35 34 32 30 31 32 33 33 32 32 33 33 34 35 36 36 36 37 37 37 37 37 38 39 40 39 39 40 40 42 47 52 57
27 27 27 26 24 21 18 16 14 14 14 14 13 12 12 11 11 11 13 14 17 19 22 24 27 29 30 32 33 33 33 32 29 29 30 31 32 31 30 30 31 32 33 33 34 34 34 34 35 34 35 36 36 36 35 34 35 36 36 36 40 44 50
27 27 27 27 26 21 19 17 15 13 13 13 12 10 9 10 9 8 9 10 12 13 16 19 22 25 27 28 30 30 31 31 30 30 29 29 30 31 30 30 30 30 31 32 33 34 33 33 33 31 31 32 31 30 30 30 31 32 33 35 38 40 44
26 27 27 28 26 23 19 18 17 15 12 12 13 11 9 8 8 7 7 8 8 9 11 14 16 19 22 25 27 27 28 29 30 29 28 28 29 30 31 31 30 30 30 30 31 31 30 30 29 26 25 26 27 28 29 30 30 30 32 35 37 39 40
26 26 27 28 26 23 20 18 17 17 14 12 13 13 11 8 7 7 8 7 8 9 10 11 13 15 18 21 24 26 26 27 28 28 27 27 28 29 31 32 31 31 30 29 29 28 27 27 24 21 21 24 27 30 31 30 30 31 32 34 36 38 39
26 26 27 28 26 22 18 17 17 17 16 15 14 13 13 10 8 8 8 7 7 9 10 11 12 13 15 17 20 23 24 25 25 26 26 26 27 29 31 32 32 32 31 30 29 28 27 26 23 22 24 26 28 31 30 29 31 32 31 32 34 36 37
25 25 27 27 24 20 16 16 16 16 16 17 16 16 16 14 12 10 9 8 8 8 9 10 11 12 13 15 18 20 22 23 24 25 26 27 28 30 31 32 32 33 33 32 31 30 29 27 26 26 26 26 27 29 29 31 32 32 30 30 31 32 34
24 24 25 24 21 18 15 15 15 15 15 16 16 17 18 18 16 13 12 11 11 11 11 10 10 11 12 13 15 18 20 22 24 25 27 29 30 31 32 33 33 34 34 34 33 33 31 29 29 28 26 25 26 27 28 30 31 31 30 30 30 31 33
23 23 22 20 19 17 15 14 14 13 14 15 16 17 18 18 18 17 15 14 13 13 14 11 10 10 11 12 14 15 18 21 23 26 27 28 30 32 33 34 34 34 35 35 35 34 32 30 31 30 28 28 28 29 31 30 30 29 29 28 28 30 31
22 22 21 19 17 17 16 16 17 17 15 14 14 17 18 18 18 18 17 15 13 13 14 13 10 10 11 12 13 15 17 20 23 26 27 28 29 32 34 34 34 34 35 37 37 35 31 30 30 30 31 31 31 32 32 32 32 31 30 30 30 29 29
20 21 20 19 18 18 18 17 18 18 16 14 13 15 18 18 17 16 16 15 14 13 14 12 11 11 13 14 14 14 17 19 22 25 27 28 28 30 33 33 33 34 36 38 38 33 30 29 29 30 31 31 32 32 32 32 32 32 31 31 31 30 28
18 18 19 18 17 18 17 16 15 14 13 15 15 16 19 19 18 16 15 14 15 15 15 13 13 13 15 15 14 14 15 18 20 23 26 28 28 29 30 30 30 31 33 36 36 32 30 29 29 28 29 29 29 32 33 33 33 32 32 31 30 29 30
18 17 18 17 16 16 16 14 13 12 13 15 14 13 16 18 17 16 15 14 15 16 16 15 14 14 15 15 14 13 14 15 17 21 24 26 28 27 27 27 27 26 28 31 31 30 29 29 28 27 28 27 27 29 32 34 35 36 35 34 32 31 32
17 17 18 17 16 16 14 12 10 9 11 14 12 9 11 14 15 15 15 14 14 15 15 15 14 14 15 15 15 14 13 12 14 17 20 23 25 24 25 27 27 25 26 29 29 29 29 28 28 27 26 26 26 27 29 31 33 35 36 35 34 33 33
16 17 17 17 16 16 14 10 8 7 9 11 12 10 10 12 13 13 13 13 13 13 14 15 14 13 12 13 14 13 11 11 11 12 15 19 21 22 25 28 28 27 27 29 28 28 28 28 28 27 26 25 26 27 28 29 30 31 33 34 33 32 33
15 16 17 17 16 16 15 12 11 11 11 11 12 12 12 13 13 13 13 13 13 12 13 14 14 12 10 11 12 12 10 9 9 10 11 14 18 21 24 27 28 28 28 29 28 28 28 27 27 27 26 26 26 26 26 26 26 27 29 31 31 30 32
15 16 17 17 16 16 15 14 13 12 11 11 12 13 14 14 13 13 13 14 14 13 13 14 14 12 12 12 12 12 10 9 9 9 10 11 15 18 21 25 27 28 29 30 30 29 28 27 26 26 26 25 24 23 22 21 22 24 27 29 30 31 32
15 17 18 19 18 17 16 15 15 13 12 11 10 11 13 14 13 12 12 13 14 14 14 15 15 14 13 13 12 12 11 10 10 11 10 11 14 17 20 22 24 26 28 29 29 29 27 26 26 26 24 22 21 21 20 19 20 22 25 28 30 32 33
15 16 18 19 21 21 19 18 17 16 15 14 11 10 10 12 12 12 12 11 12 12 14 15 16 16 15 15 14 14 13 12 13 13 13 13 14 17 19 21 22 24 26 27 26 26 26 25 24 23 21 20 20 20 20 19 19 21 23 26 27 28 30
17 17 17 18 20 21 22 22 20 18 17 16 15 12 10 10 11 12 12 11 11 11 12 13 15 16 16 16 16 16 16 16 16 16 16 16 17 18 19 21 22 23 25 25 25 24 23 22 22 23 22 21 21 21 20 20 20 20 22 23 23 24 25
18 18 19 20 21 21 22 22 22 20 19 18 18 16 13 11 11 11 12 12 11 11 11 12 13 14 15 15 16 17 18 18 19 20 20 20 20 21 22 22 23 24 24 25 25 25 23 22 23 24 23 22 22 22 21 21 20 20 20 20 21 21 22
19 20 21 23 23 23 23 23 22 21 20 20 20 18 15 13 12 12 12 12 11 10 10 11 12 12 13 14 15 15 16 17 19 20 22 23 24 24 25 26 26 26 26 26 26 27 26 26 26 25 24 23 23 21 21 21 20 18 18 18 19 19 18
21 22 23 24 25 25 25 25 24 23 22 21 21 19 16 14 14 13 12 12 11 10 10 10 11 11 12 13 13 14 14 15 17 19 21 23 25 26 28 29 30 30 30 29 29 29 29 29 29 28 26 26 25 23 21 20 20 18 17 17 18 18 18
23 24 25 26 26 25 25 26 26 25 24 22 21 20 17 15 15 15 14 13 12 11 10 10 10 10 10 11 11 11 12 14 15 17 19 21 23 25 27 29 31 32 32 32 32 32 31 31 32 32 30 29 27 24 22 21 21 19 17 17 18 18 19
24 25 26 27 27 26 25 25 26 26 25 23 20 19 17 16 16 15 14 14 13 11 11 11 12 11 11 10 10 11 11 12 14 16 18 19 21 22 24 26 28 29 31 33 34 35 34 33 35 36 34 31 28 26 23 22 22 21 19 18 19 19 19
25 26 26 26 26 26 27 26 26 26 26 23 20 17 16 16 16 16 15 14 13 12 12 12 12 12 12 11 11 11 12 12 13 15 16 18 19 20 22 23 24 26 27 29 31 33 35 35 36 37 36 33 30 28 25 24 23 23 21 21 20 20 19
26 26 26 25 25 26 27 26 25 25 24 22 19 16 16 16 16 16 15 14 13 13 13 12 12 12 12 12 12 12 13 13 13 14 15 16 17 18 19 20 22 22 24 25 26 28 30 32 34 36 37 36 34 31 29 27 25 24 23 22 21 20 19
25 26 26 26 25 25 25 24 23 22 21 19 17 15 16 16 15 14 14 13 13 12 12 12 12 12 12 12 13 13 13 13 13 13 14 15 15 16 16 17 18 19 20 21 22 23 25 27 29 32 35 36 35 34 33 31 27 25 24 22 21 19 19
23 24 25 25 24 23 23 22 21 20 19 17 15 14 14 15 15 14 13 13 12 11 11 11 11 12 12 13 13 13 13 13 13 13 13 14 14 14 14 15 16 17 17 18 19 20 21 22 24 27 29 31 31 33 34 32 28 25 24 23 21 19 19
Wind_Direction
356 356 354 352 347 340 328 313 298 286 275 266 258 253 253 254 256 257 255 251 248 246 246 247 247 248 248 249 250 248 244 240 237 236 237 239 240 241 242 243 245 248 250 249 249 249 249 248 248 249 249 249 247 246 244 243 241 240 239 239 240 241 242
356 357 357 357 356 354 347 337 320 302 285 271 260 254 254 257 258 259 257 254 250 248 247 248 248 247 246 246 247 244 240 237 235 234 235 237 240 241 241 241 243 245 248 249 249 249 249 249 248 248 249 250 250 249 247 245 243 242 240 239 239 239 240
354 355 357 359 360 359 357 353 344 326 303 281 265 257 256 258 259 260 260 258 255 252 250 249 248 247 244 243 243 240 237 235 235 236 237 237 239 241 241 240 242 245 247 249 250 249 249 249 249 248 248 249 251 252 250 248 246 244 243 241 239 239 238
352 353 355 358 0 1 1 1 358 349 331 304 280 264 259 259 260 261 262 261 260 257 254 251 248 245 243 241 240 238 236 236 238 240 240 239 239 241 242 241 242 243 245 248 249 250 250 249 250 250 248 247 248 251 252 250 248 246 245 243 241 240 239
351 350 351 354 359 0 1 2 3 360 349 330 304 281 267 262 262 262 262 261 260 258 255 252 248 244 240 237 236 236 236 238 240 242 243 242 242 241 242 242 242 243 244 246 248 249 250 250 250 250 249 248 248 250 251 251 249 247 246 244 243 242 240
352 351 349 349 353 357 359 358 360 1 357 345 326 302 283 269 264 262 261 260 259 258 255 252 248 244 239 237 238 238 239 240 241 243 244 244 245 243 240 241 242 242 243 245 246 247 248 248 248 249 249 249 249 251 252 254 253 249 246 244 243 242 241
349 352 351 347 345 349 353 354 353 356 359 354 342 323 301 283 271 265 261 260 258 257 255 253 250 247 243 242 243 244 243 243 244 244 244 243 242 241 238 237 238 240 241 242 244 245 245 246 247 247 248 249 251 252 252 254 255 253 249 246 244 242 241
342 347 350 349 345 341 342 346 347 347 351 353 348 338 320 300 284 274 266 262 259 257 256 255 254 252 249 247 248 249 249 249 250 248 245 239 237 237 236 235 234 235 237 239 240 241 243 245 246 246 247 249 250 251 252 254 257 258 255 251 248 244 241
335 341 345 347 346 339 333 333 336 338 339 341 345 343 333 321 305 290 279 270 265 261 258 256 255 255 253 253 253 254 254 253 249 245 241 237 234 232 233 234 234 234 236 238 240 241 242 245 246 246 246 247 248 250 252 255 257 257 256 255 252 247 242
331 335 339 341 342 338 330 324 322 323 327 330 332 335 332 327 323 315 300 284 273 266 263 260 258 256 255 254 253 253 253 251 246 242 240 237 233 230 230 232 234 235 236 238 240 242 243 244 245 244 243 244 246 249 251 252 253 256 257 257 255 250 244
328 331 332 334 336 334 327 320 313 311 313 318 319 320 321 320 321 322 315 301 286 274 265 261 259 256 254 253 251 250 249 248 245 242 239 236 232 229 229 231 235 237 235 235 238 240 241 239 239 238 238 241 247 251 251 252 255 257 257 256 256 253 248
325 326 326 328 331 330 324 317 311 308 305 303 304 306 309 310 307 303 302 302 299 290 278 269 264 260 256 253 251 248 246 245 243 240 238 236 232 228 229 232 235 237 233 231 234 237 236 233 234 237 239 242 248 252 253 255 255 254 254 255 256 254 251
321 322 322 324 327 328 323 317 314 311 307 301 295 293 294 294 292 292 293 296 301 299 294 287 281 274 266 259 254 249 245 242 240 238 236 235 232 229 230 232 235 236 232 229 229 230 229 230 234 239 242 244 248 251 253 253 252 253 255 256 257 256 253
318 319 321 323 325 328 326 321 318 314 308 303 297 291 289 286 284 284 282 282 287 290 290 292 294 292 284 274 264 256 249 244 239 237 236 236 235 234 233 233 234 234 231 229 226 223 222 226 232 236 239 243 247 249 250 250 251 253 255 254 255 256 254
316 319 322 323 325 328 329 326 320 310 300 297 296 291 286 283 283 282 278 275 279 281 283 287 294 299 298 291 280 267 257 249 242 238 238 238 238 238 236 235 233 231 230 230 225 220 220 224 229 233 234 236 238 240 243 246 249 250 252 253 253 254 254
318 322 325 327 326 328 332 334 328 315 300 292 290 290 287 283 281 280 278 276 274 274 278 282 288 296 300 300 296 284 269 256 247 242 239 239 239 238 237 236 233 230 229 228 223 221 224 229 230 232 235 236 237 238 240 243 244 244 248 253 254 254 255
320 324 328 332 331 332 339 344 341 332 320 305 292 290 291 289 284 279 278 278 272 269 277 282 283 289 293 295 298 293 280 265 253 246 243 241 240 237 236 235 232 231 230 226 221 223 231 235 235 237 240 241 242 242 241 241 241 242 248 253 254 256 257
319 323 329 336 338 338 342 344 337 331 331 330 317 302 296 293 290 284 279 275 269 265 272 279 280 286 292 295 297 294 283 270 258 250 245 242 240 237 235 232 230 231 230 224 221 226 235 239 239 241 243 244 243 241 240 239 238 242 248 252 254 257 259
317 322 329 338 341 337 334 332 330 334 343 342 330 316 305 297 293 291 283 274 268 264 265 271 277 285 292 296 299 295 284 271 260 252 245 241 238 236 233 229 227 229 227 221 223 231 238 241 243 244 245 245 244 241 240 239 239 241 246 250 255 260 261
317 322 329 337 339 332 322 323 337 352 352 338 325 316 314 308 302 298 291 278 268 265 265 268 274 280 286 291 297 295 286 275 263 254 247 241 237 234 229 222 220 221 221 220 225 234 239 242 244 245 245 246 246 245 244 243 242 243 247 253 258 262 264
317 324 330 333 331 325 318 323 342 356 345 331 324 321 321 317 309 301 294 283 269 262 264 268 270 272 273 279 289 294 293 286 273 261 251 243 237 232 224 216 213 216 219 223 228 234 239 242 243 243 243 245 248 250 250 249 248 247 249 252 255 258 261
317 326 332 330 324 320 318 312 308 310 312 316 319 317 311 307 302 297 293 287 273 263 261 264 267 267 264 268 278 288 298 302 291 275 258 244 234 227 220 216 214 218 224 227 230 235 240 243 243 241 242 247 254 257 257 255 252 249 247 248 251 255 258
316 327 334 332 324 318 313 302 292 296 305 314 322 323 316 307 302 298 293 287 278 267 260 261 266 271 269 268 272 278 289 299 298 287 266 244 231 224 221 219 220 224 229 231 235 239 242 244 244 243 247 255 261 261 258 255 250 244 242 244 248 253 257
313 323 328 331 328 321 312 302 295 294 302 313 322 325 324 320 313 307 300 292 284 272 261 257 259 261 261 263 267 273 280 283 284 279 263 244 233 227 225 225 227 231 235 238 240 242 244 244 246 249 255 260 260 254 248 247 245 241 242 246 249 253 257
307 315 318 324 328 327 320 311 303 294 291 296 305 314 318 319 316 311 305 298 292 282 270 263 260 257 257 260 264 270 274 274 272 270 261 247 238 233 232 233 234 237 240 242 243 244 245 247 250 253 254 253 249 245 242 244 246 247 248 251 253 256 257
300 306 311 318 323 325 325 321 313 303 293 287 285 292 303 308 310 308 304 299 297 291 280 272 268 264 263 264 266 268 268 266 263 261 258 253 246 241 240 240 240 241 242 243 244 245 246 248 248 246 245 245 246 247 246 247 250 252 253 254 255 255 255
298 301 307 314 318 320 321 321 318 311 300 290 283 278 281 292 301 303 300 295 292 290 285 278 274 270 267 265 266 266 265 263 260 257 254 251 247 245 244 242 241 241 242 242 242 241 244 247 245 241 242 247 251 252 252 252 254 254 254 255 256 255 253
296 302 309 314 316 316 316 316 316 312 304 297 290 281 273 280 294 301 301 293 285 284 284 280 276 274 271 268 265 264 263 262 260 258 256 253 250 247 246 246 244 243 242 242 239 235 237 244 247 245 245 248 252 255 255 255 255 255 254 254 255 256 254
297 303 309 313 314 314 312 312 312 311 306 302 297 290 283 286 293 300 303 298 288 282 280 279 277 275 272 270 267 265 263 260 258 256 255 254 252 250 247 247 247 246 244 244 241 235 233 237 243 244 244 247 252 253 253 252 252 253 254 252 251 252 252
299 302 305 308 310 311 311 311 312 312 309 304 299 293 291 293 297 301 303 300 292 283 278 278 278 274 271 268 266 265 264 262 259 257 255 253 252 250 248 247 246 246 245 244 243 239 235 236 241 244 245 249 252 249 247 249 249 250 252 251 248 249 249
299 299 301 304 306 308 309 310 310 310 309 307 300 294 291 291 294 297 300 299 292 285 282 281 279 277 276 273 268 266 264 261 260 260 258 257 255 253 252 250 248 247 246 244 244 243 239 237 241 245 247 249 249 247 245 247 248 249 252 250 247 248 247
296 297 299 303 306 307 308 309 308 308 308 307 301 293 287 287 289 292 294 295 292 287 284 282 279 279 281 280 277 275 271 267 264 262 260 260 258 256 255 254 252 250 248 246 245 244 242 239 238 242 246 246 242 240 243 247 250 251 251 249 248 246 245
297 298 300 303 305 307 309 309 309 308 307 307 302 293 286 286 289 290 290 290 290 288 285 281 278 278 279 280 280 281 278 275 272 269 267 265 261 258 256 255 254 253 251 249 247 245 244 241 238 240 244 243 240 239 241 246 251 251 248 248 249 246 242
300 301 303 304 305 307 308 308 307 307 306 305 302 295 288 286 288 287 284 284 287 285 282 281 281 280 280 281 283 283 281 280 277 274 274 273 268 263 259 256 255 254 252 251 250 246 245 244 240 239 241 242 242 242 242 244 248 249 247 249 250 246 240
297 300 302 303 304 305 305 304 305 304 303 301 297 290 285 283 283 282 279 279 282 282 281 283 286 285 284 284 285 285 285 284 283 281 280 278 273 269 265 260 258 256 252 251 250 247 245 243 240 239 239 240 240 241 242 244 246 246 246 249 250 245 237
295 298 301 302 304 306 305 306 307 306 304 301 295 287 282 280 280 279 276 276 279 281 281 282 284 285 287 287 288 288 287 286 285 284 283 281 276 271 268 266 263 260 255 252 249 246 243 240 237 236 237 237 236 237 239 241 242 243 243 245 247 244 235